Time,TemperatureF,DewpointF,PressureIn,WindDirection,WindDirectionDegrees,WindSpeedMPH,WindSpeedGustMPH,Humidity,HourlyPrecipIn,Conditions,Clouds,dailyrainin,SolarRadiationWatts/m^2,SoftwareType,DateUTC
2013-05-28 00:03:00,52.0,50.0,29.95,ENE,69,2.0,9.0,92,0.00,,,0.00,0,weatherlink.com 1.10,2013-05-28 04:03:00,
2013-05-28 00:18:00,52.0,50.0,29.95,East,80,0.0,7.0,92,0.00,,,0.00,0,weatherlink.com 1.10,2013-05-28 04:18:00,
2013-05-28 00:33:00,52.1,50.0,29.95,NNE,24,7.0,9.0,92,0.00,,,0.00,0,weatherlink.com 1.10,2013-05-28 04:33:00,
2013-05-28 00:48:00,52.2,50.0,29.95,East,90,0.0,7.0,92,0.00,,,0.00,0,weatherlink.com 1.10,2013-05-28 04:48:00,
2013-05-28 01:03:00,52.3,50.0,29.94,ENE,72,1.0,8.0,92,0.00,,,0.00,0,weatherlink.com 1.10,2013-05-28 05:03:00,
2013-05-28 01:18:00,52.4,50.0,29.94,East,80,7.0,9.0,92,0.00,,,0.00,0,weatherlink.com 1.10,2013-05-28 05:18:00,
2013-05-28 01:33:00,52.4,50.0,29.94,East,84,3.0,6.0,92,0.00,,,0.00,0,weatherlink.com 1.10,2013-05-28 05:33:00,
2013-05-28 01:49:00,52.6,50.0,29.92,East,83,3.0,6.0,92,0.00,,,0.00,0,weatherlink.com 1.10,2013-05-28 05:49:00,
2013-05-28 02:04:00,52.6,50.0,29.91,East,86,2.0,8.0,92,0.00,,,0.00,0,weatherlink.com 1.10,2013-05-28 06:04:00,
2013-05-28 02:19:00,52.6,50.0,29.92,ESE,112,0.0,7.0,92,0.00,,,0.00,0,weatherlink.com 1.10,2013-05-28 06:19:00,
2013-05-28 02:34:00,52.7,51.0,29.92,ENE,78,3.0,4.0,92,0.00,,,0.00,0,weatherlink.com 1.10,2013-05-28 06:34:00,
2013-05-28 02:49:00,52.8,51.0,29.91,East,101,1.0,7.0,92,0.00,,,0.00,0,weatherlink.com 1.10,2013-05-28 06:49:00,
2013-05-28 03:04:00,52.8,51.0,29.91,East,88,0.0,5.0,92,0.00,,,0.00,0,weatherlink.com 1.10,2013-05-28 07:04:00,
2013-05-28 03:19:00,52.9,51.0,29.91,ENE,71,1.0,7.0,92,0.00,,,0.00,0,weatherlink.com 1.10,2013-05-28 07:19:00,
2013-05-28 03:34:00,53.0,51.0,29.90,ENE,75,1.0,7.0,92,0.00,,,0.00,0,weatherlink.com 1.10,2013-05-28 07:34:00,
2013-05-28 03:49:00,53.0,51.0,29.89,ENE,71,0.0,7.0,92,0.00,,,0.00,0,weatherlink.com 1.10,2013-05-28 07:49:00,
2013-05-28 04:04:00,53.0,51.0,29.88,East,88,1.0,5.0,92,0.00,,,0.00,0,weatherlink.com 1.10,2013-05-28 08:04:00,
2013-05-28 04:19:00,53.1,51.0,29.89,East,96,2.0,5.0,92,0.00,,,0.00,0,weatherlink.com 1.10,2013-05-28 08:19:00,
2013-05-28 04:34:00,53.1,51.0,29.89,East,96,0.0,5.0,92,0.00,,,0.00,0,weatherlink.com 1.10,2013-05-28 08:34:00,
2013-05-28 04:49:00,53.1,51.0,29.89,East,83,0.0,7.0,93,0.00,,,0.00,0,weatherlink.com 1.10,2013-05-28 08:49:00,
2013-05-28 05:04:00,53.2,51.0,29.89,ESE,113,0.0,7.0,93,0.00,,,0.00,0,weatherlink.com 1.10,2013-05-28 09:04:00,
2013-05-28 05:19:00,53.3,51.0,29.88,ENE,76,0.0,7.0,93,0.00,,,0.00,0,weatherlink.com 1.10,2013-05-28 09:19:00,
2013-05-28 05:34:00,53.3,51.0,29.89,ESE,114,1.0,9.0,93,0.00,,,0.00,0,weatherlink.com 1.10,2013-05-28 09:34:00,
2013-05-28 05:49:00,53.5,52.0,29.89,ESE,102,0.0,5.0,93,0.00,,,0.00,0,weatherlink.com 1.10,2013-05-28 09:49:00,
2013-05-28 06:04:00,53.6,52.0,29.89,ENE,78,2.0,4.0,93,0.01,,,0.01,0,weatherlink.com 1.10,2013-05-28 10:04:00,
2013-05-28 06:19:00,53.7,52.0,29.89,ENE,71,1.0,7.0,93,0.01,,,0.01,0,weatherlink.com 1.10,2013-05-28 10:19:00,
2013-05-28 06:34:00,53.7,52.0,29.88,ENE,78,2.0,5.0,93,0.02,,,0.02,0,weatherlink.com 1.10,2013-05-28 10:34:00,
2013-05-28 06:49:00,53.7,52.0,29.87,ENE,72,3.0,7.0,93,0.02,,,0.02,0,weatherlink.com 1.10,2013-05-28 10:49:00,
2013-05-28 07:04:00,53.9,52.0,29.88,East,81,0.0,7.0,93,0.03,,,0.04,0,weatherlink.com 1.10,2013-05-28 11:04:00,
2013-05-28 07:19:00,54.0,52.0,29.89,ESE,107,2.0,3.0,93,0.03,,,0.04,0,weatherlink.com 1.10,2013-05-28 11:19:00,
2013-05-28 07:34:00,54.2,52.0,29.89,ESE,111,1.0,2.0,93,0.02,,,0.04,0,weatherlink.com 1.10,2013-05-28 11:34:00,
2013-05-28 07:49:00,54.4,53.0,29.88,East,84,1.0,1.0,93,0.02,,,0.04,11,weatherlink.com 1.10,2013-05-28 11:49:00,
2013-05-28 08:04:00,54.6,53.0,29.88,East,91,0.0,0.0,94,0.00,,,0.04,9,weatherlink.com 1.10,2013-05-28 12:04:00,
2013-05-28 10:03:00,57.4,56.0,29.84,East,94,3.0,3.0,94,0.00,,,0.04,46,weatherlink.com 1.10,2013-05-28 14:03:00,
2013-05-28 10:20:00,58.2,57.0,29.83,East,100,2.0,5.0,94,0.00,,,0.04,58,weatherlink.com 1.10,2013-05-28 14:20:00,
2013-05-28 10:35:00,59.0,57.0,29.83,East,97,0.0,5.0,94,0.00,,,0.04,116,weatherlink.com 1.10,2013-05-28 14:35:00,
2013-05-28 10:50:00,59.3,58.0,29.82,East,86,0.0,5.0,94,0.00,,,0.04,91,weatherlink.com 1.10,2013-05-28 14:50:00,
2013-05-28 11:05:00,60.3,59.0,29.80,East,101,2.0,7.0,95,0.00,,,0.04,357,weatherlink.com 1.10,2013-05-28 15:05:00,
2013-05-28 11:20:00,61.3,60.0,29.80,ESE,111,0.0,8.0,94,0.00,,,0.04,111,weatherlink.com 1.10,2013-05-28 15:20:00,
2013-05-28 11:35:00,61.7,60.0,29.80,East,95,0.0,2.0,95,0.00,,,0.04,39,weatherlink.com 1.10,2013-05-28 15:35:00,
2013-05-28 11:50:00,61.9,60.0,29.83,East,94,0.0,0.0,94,0.01,,,0.05,14,weatherlink.com 1.10,2013-05-28 15:50:00,
2013-05-28 12:05:00,62.2,61.0,29.82,East,95,0.0,0.0,95,0.04,,,0.08,76,weatherlink.com 1.10,2013-05-28 16:05:00,
2013-05-28 12:20:00,64.3,63.0,29.81,East,95,2.0,2.0,95,0.04,,,0.08,429,weatherlink.com 1.10,2013-05-28 16:20:00,
2013-05-28 12:35:00,67.1,66.0,29.81,East,95,0.0,2.0,95,0.04,,,0.08,571,weatherlink.com 1.10,2013-05-28 16:35:00,
2013-05-28 12:50:00,67.5,66.0,29.81,SSW,205,0.0,3.0,95,0.02,,,0.08,244,weatherlink.com 1.10,2013-05-28 16:50:00,
2013-05-28 13:05:00,68.3,67.0,29.82,SW,221,3.0,8.0,95,0.00,,,0.08,552,weatherlink.com 1.10,2013-05-28 17:05:00,
2013-05-28 13:20:00,68.3,67.0,29.81,WSW,257,1.0,9.0,95,0.00,,,0.08,684,weatherlink.com 1.10,2013-05-28 17:20:00,
2013-05-28 13:35:00,69.3,68.0,29.81,West,273,3.0,11.0,94,0.00,,,0.08,492,weatherlink.com 1.10,2013-05-28 17:35:00,
2013-05-28 13:50:00,70.4,68.0,29.81,SW,222,2.0,9.0,92,0.00,,,0.08,258,weatherlink.com 1.10,2013-05-28 17:50:00,
2013-05-28 14:05:00,70.0,67.0,29.82,WSW,242,2.0,11.0,89,0.00,,,0.08,98,weatherlink.com 1.10,2013-05-28 18:05:00,
2013-05-28 14:20:00,70.2,66.0,29.82,SW,234,4.0,12.0,86,0.00,,,0.08,165,weatherlink.com 1.10,2013-05-28 18:20:00,
2013-05-28 14:36:00,70.8,65.0,29.81,SSW,205,0.0,11.0,83,0.00,,,0.08,146,weatherlink.com 1.10,2013-05-28 18:36:00,
2013-05-28 14:51:00,72.1,66.0,29.81,SW,230,10.0,11.0,81,0.00,,,0.08,359,weatherlink.com 1.10,2013-05-28 18:51:00,
2013-05-28 15:06:00,72.6,66.0,29.81,SSE,150,4.0,11.0,79,0.00,,,0.08,309,weatherlink.com 1.10,2013-05-28 19:06:00,
2013-05-28 15:21:00,73.2,66.0,29.81,WSW,246,4.0,11.0,78,0.00,,,0.08,318,weatherlink.com 1.10,2013-05-28 19:21:00,
2013-05-28 15:36:00,74.9,67.0,29.80,WSW,240,8.0,12.0,75,0.00,,,0.08,666,weatherlink.com 1.10,2013-05-28 19:36:00,
2013-05-28 15:51:00,75.3,66.0,29.80,West,267,3.0,11.0,73,0.00,,,0.08,466,weatherlink.com 1.10,2013-05-28 19:51:00,
2013-05-28 16:06:00,76.3,67.0,29.80,WSW,257,2.0,10.0,72,0.00,,,0.08,394,weatherlink.com 1.10,2013-05-28 20:06:00,
2013-05-28 16:21:00,76.0,66.0,29.79,SW,226,4.0,11.0,71,0.00,,,0.08,311,weatherlink.com 1.10,2013-05-28 20:21:00,
2013-05-28 16:36:00,75.6,66.0,29.79,WSW,240,1.0,15.0,73,0.00,,,0.08,137,weatherlink.com 1.10,2013-05-28 20:36:00,
2013-05-28 16:51:00,75.2,66.0,29.79,WSW,245,4.0,11.0,74,0.00,,,0.08,364,weatherlink.com 1.10,2013-05-28 20:51:00,
2013-05-28 17:06:00,75.3,67.0,29.78,ESE,114,7.0,12.0,74,0.00,,,0.08,271,weatherlink.com 1.10,2013-05-28 21:06:00,
2013-05-28 17:21:00,75.1,67.0,29.78,SW,222,5.0,11.0,75,0.00,,,0.08,111,weatherlink.com 1.10,2013-05-28 21:21:00,
2013-05-28 17:36:00,74.5,67.0,29.78,SSW,206,2.0,11.0,76,0.00,,,0.08,47,weatherlink.com 1.10,2013-05-28 21:36:00,
2013-05-28 17:51:00,74.0,67.0,29.78,SW,236,8.0,10.0,78,0.00,,,0.08,19,weatherlink.com 1.10,2013-05-28 21:51:00,
2013-05-28 18:06:00,72.6,67.0,29.78,SW,221,0.0,9.0,83,0.00,,,0.08,65,weatherlink.com 1.10,2013-05-28 22:06:00,
2013-05-28 18:21:00,71.5,67.0,29.77,WSW,250,1.0,4.0,85,0.01,,,0.09,33,weatherlink.com 1.10,2013-05-28 22:21:00,
2013-05-28 18:36:00,70.8,67.0,29.77,SW,234,2.0,8.0,87,0.01,,,0.09,33,weatherlink.com 1.10,2013-05-28 22:36:00,
2013-05-28 18:51:00,70.3,67.0,29.78,West,261,0.0,5.0,89,0.02,,,0.10,18,weatherlink.com 1.10,2013-05-28 22:51:00,
2013-05-28 19:06:00,70.0,67.0,29.77,West,259,0.0,3.0,90,0.02,,,0.10,28,weatherlink.com 1.10,2013-05-28 23:06:00,
2013-05-28 19:21:00,69.8,67.0,29.77,West,259,0.0,5.0,90,0.02,,,0.11,21,weatherlink.com 1.10,2013-05-28 23:21:00,
2013-05-28 19:36:00,69.6,67.0,29.77,West,259,0.0,1.0,91,0.02,,,0.11,18,weatherlink.com 1.10,2013-05-28 23:36:00,
2013-05-28 19:51:00,69.5,67.0,29.77,West,259,1.0,4.0,91,0.01,,,0.11,16,weatherlink.com 1.10,2013-05-28 23:51:00,
2013-05-28 20:06:00,69.5,67.0,29.76,SW,236,2.0,7.0,92,0.01,,,0.11,21,weatherlink.com 1.10,2013-05-29 00:06:00,
2013-05-28 20:21:00,69.5,67.0,29.76,SW,236,3.0,4.0,92,0.00,,,0.11,23,weatherlink.com 1.10,2013-05-29 00:21:00,
2013-05-28 20:36:00,69.4,67.0,29.76,WSW,252,1.0,3.0,92,0.00,,,0.11,12,weatherlink.com 1.10,2013-05-29 00:36:00,
2013-05-28 20:51:00,69.2,67.0,29.75,WSW,238,1.0,5.0,92,0.00,,,0.11,14,weatherlink.com 1.10,2013-05-29 00:51:00,
2013-05-28 21:06:00,69.1,67.0,29.75,WSW,249,3.0,5.0,92,0.00,,,0.11,14,weatherlink.com 1.10,2013-05-29 01:06:00,
2013-05-28 21:21:00,68.9,67.0,29.75,West,259,3.0,7.0,93,0.00,,,0.11,0,weatherlink.com 1.10,2013-05-29 01:21:00,
2013-05-28 21:36:00,68.8,67.0,29.75,WSW,254,2.0,12.0,93,0.00,,,0.11,14,weatherlink.com 1.10,2013-05-29 01:36:00,
2013-05-28 21:51:00,68.9,67.0,29.76,WSW,258,5.0,8.0,93,0.00,,,0.11,0,weatherlink.com 1.10,2013-05-29 01:51:00,
2013-05-28 22:06:00,69.1,67.0,29.76,SSW,196,0.0,7.0,92,0.00,,,0.11,0,weatherlink.com 1.10,2013-05-29 02:06:00,
2013-05-28 22:21:00,69.2,67.0,29.76,SW,221,2.0,5.0,92,0.00,,,0.11,0,weatherlink.com 1.10,2013-05-29 02:21:00,
2013-05-28 22:36:00,69.2,67.0,29.75,SW,229,0.0,0.0,92,0.00,,,0.11,0,weatherlink.com 1.10,2013-05-29 02:36:00,
2013-05-28 22:51:00,69.1,67.0,29.75,SW,229,0.0,0.0,92,0.00,,,0.11,0,weatherlink.com 1.10,2013-05-29 02:51:00,
2013-05-28 23:06:00,69.1,67.0,29.77,SW,229,0.0,0.0,92,0.00,,,0.11,0,weatherlink.com 1.10,2013-05-29 03:06:00,
2013-05-28 23:21:00,69.2,67.0,29.76,WSW,248,3.0,9.0,92,0.00,,,0.11,0,weatherlink.com 1.10,2013-05-29 03:21:00,
2013-05-28 23:36:00,69.5,67.0,29.77,SW,232,1.0,9.0,92,0.00,,,0.11,0,weatherlink.com 1.10,2013-05-29 03:36:00,
2013-05-28 23:51:00,69.7,67.0,29.77,SW,236,0.0,5.0,92,0.00,,,0.11,0,weatherlink.com 1.10,2013-05-29 03:51:00,